CW4517 Weather Reports


time (UTC)temp
C
wind
direction
speed
KPH
gust
KPH
rain 1hr
cm
rain 24hr
cm
rain mn
cm
humidity
%
barometer
mb
20260506111830 5 55 0.0 3.2 0.00 0.00 0.00 69 1008.5
20260506111326 5 55 0.0 3.2 0.00 0.00 0.00 69 1008.5
20260506110814 5 55 0.0 3.2 0.00 0.00 0.00 70 1008.5
20260506110303 5 55 0.0 1.6 0.00 0.00 0.00 70 1008.3
20260506105752 5 55 0.0 1.6 0.00 0.00 0.00 71 1008.3
20260506105238 5 55 0.0 0.0 0.00 0.00 0.00 71 1008.3
20260506104727 5 55 0.0 0.0 0.00 0.00 0.00 70 1008.2
20260506104215 5 55 0.0 0.0 0.00 0.00 0.00 70 1008.2
20260506103702 5 55 1.6 3.2 0.00 0.00 0.00 70 1008.2
20260506103150 5 55 1.6 4.8 0.00 0.00 0.00 70 1007.8
20260506102640 5 55 0.0 4.8 0.00 0.00 0.00 69 1007.8
20260506102126 5 55 1.6 4.8 0.00 0.00 0.00 69 1007.8
20260506101615 5 55 1.6 4.8 0.00 0.00 0.00 69 1007.6
20260506101109 6 55 1.6 4.8 0.00 0.00 0.00 69 1007.6
20260506100604 6 55 1.6 4.8 0.00 0.00 0.00 69 1007.6
20260506100050 6 48 0.0 3.2 0.00 0.00 0.00 69 1007.7
20260506095550 6 48 0.0 3.2 0.00 0.00 0.00 68 1007.7
20260506095045 6 38 0.0 0.0 0.00 0.00 0.00 68 1007.7
20260506094537 6 38 0.0 0.0 0.00 0.00 0.00 68 1007.8
20260506094033 6 38 0.0 3.2 0.00 0.00 0.00 68 1007.8
20260506093520 6 38 0.0 4.8 0.00 0.00 0.00 67 1007.8
20260506093020 6 57 1.6 3.2 0.00 0.00 0.00 67 1007.8
20260506092515 6 58 1.6 3.2 0.00 0.00 0.00 67 1007.8
20260506092008 6 57 0.0 3.2 0.00 0.00 0.00 66 1007.8
20260506091504 6 56 0.0 3.2 0.00 0.00 0.00 66 1007.7
20260506090956 6 57 0.0 3.2 0.00 0.00 0.00 65 1007.7
20260506090716 6 56 0.0 3.2 0.00 0.00 0.00 65 1007.7
20260506085946 6 56 1.6 3.2 0.00 0.00 0.00 65 1007.7
20260506085439 6 56 1.6 3.2 0.00 0.00 0.00 64 1007.7
20260506085152 7 59 1.6 4.8 0.00 0.00 0.00 64 1007.6
20260506084426 7 59 1.6 8.0 0.00 0.00 0.00 64 1007.6
20260506083921 7 67 1.6 8.0 0.00 0.00 0.00 63 1007.6
20260506083628 7 46 1.6 4.8 0.00 0.00 0.00 62 1007.6
20260506082908 7 34 1.6 4.8 0.00 0.00 0.00 62 1007.6
20260506082402 7 32 1.6 4.8 0.00 0.00 0.00 61 1007.6
20260506081855 7 48 3.2 11.3 0.00 0.00 0.00 60 1007.5
20260506081351 7 49 3.2 11.3 0.00 0.00 0.00 60 1007.5
20260506080847 7 60 4.8 12.9 0.00 0.00 0.00 60 1007.5
20260506080339 7 56 4.8 12.9 0.00 0.00 0.00 59 1007.3
20260506073018 8 336 4.8 11.3 0.00 0.00 0.00 58 1006.7
20260506072249 8 5 4.8 11.3 0.00 0.00 0.00 58 1006.7
20260506071743 8 5 4.8 11.3 0.00 0.00 0.00 58 1006.6
20260506071505 8 355 4.8 9.7 0.00 0.00 0.00 58 1006.6
20260506070727 8 355 4.8 9.7 0.00 0.00 0.00 58 1006.6
20260506070226 8 355 3.2 6.4 0.00 0.00 0.00 59 1006.6
20260506062147 8 14 1.6 8.0 0.00 0.00 0.00 60 1006.6
20260506061647 8 0 3.2 8.0 0.00 0.00 0.00 60 1006.6
20260506061149 9 355 3.2 6.4 0.00 0.00 0.00 59 1006.6
20260506060649 9 9 3.2 6.4 0.00 0.00 0.00 59 1006.6
20260506060147 9 26 1.6 6.4 0.00 0.00 0.00 59 1006.8
20260506051048 10 270 1.6 8.0 0.00 0.00 0.00 58 1006.3
20260506050549 10 314 1.6 8.0 0.00 0.00 0.00 58 1006.3
20260506045023 10 277 1.6 4.8 0.00 0.00 0.00 58 1006.1
20260506044518 10 262 1.6 4.8 0.00 0.00 0.00 58 1006.4
20260506044005 10 261 0.0 3.2 0.00 0.00 0.00 58 1006.4
20260506043505 10 257 0.0 4.8 0.00 0.00 0.00 59 1006.4
20260506043219 10 257 1.6 4.8 0.00 0.00 0.00 58 1006.5
20260506042939 10 292 0.0 3.2 0.00 0.00 0.00 57 1006.5
20260506041947 10 292 0.0 3.2 0.00 0.00 0.00 56 1006.6
20260506041441 10 268 0.0 0.0 0.00 0.00 0.00 57 1006.6
20260506040937 10 263 0.0 0.0 0.00 0.00 0.00 57 1006.6
20260506040424 10 255 0.0 0.0 0.00 0.00 0.00 57 1006.7
20260506040152 10 281 0.0 3.2 0.00 0.00 0.00 57 1006.7
20260506035419 10 281 1.6 3.2 0.00 0.00 0.00 58 1006.7
20260506034911 10 282 1.6 4.8 0.00 0.00 0.00 56 1006.6
20260506034406 10 290 1.6 4.8 0.00 0.00 0.00 55 1006.6
20260506033856 10 290 1.6 3.2 0.00 0.00 0.00 56 1006.6
20260506033353 10 291 1.6 4.8 0.00 0.00 0.00 54 1006.5
20260506032848 10 293 0.0 4.8 0.00 0.00 0.00 55 1006.5
20260506032609 10 277 0.0 0.0 0.00 0.00 0.00 56 1006.5
20260506031836 10 277 0.0 0.0 0.00 0.00 0.00 54 1006.5
20260506031329 10 277 0.0 0.0 0.00 0.00 0.00 54 1006.5
20260506031050 10 277 0.0 0.0 0.00 0.00 0.00 55 1006.5
20260506030313 10 277 0.0 0.0 0.00 0.00 0.00 54 1006.1
20260506025812 10 277 0.0 0.0 0.00 0.00 0.00 53 1006.1
20260506025306 11 277 0.0 0.0 0.00 0.00 0.00 53 1006.1
20260506024759 11 277 0.0 3.2 0.00 0.00 0.00 53 1006.0
20260506024515 11 277 1.6 4.8 0.00 0.00 0.00 52 1006.0
20260506023744 11 277 1.6 4.8 0.00 0.00 0.00 52 1006.0
20260506023231 11 277 1.6 6.4 0.00 0.00 0.00 52 1006.0
20260506022731 11 277 1.6 6.4 0.00 0.00 0.00 52 1006.0
20260506022226 11 279 0.0 4.8 0.00 0.00 0.00 52 1006.0
20260506021718 11 279 0.0 4.8 0.00 0.00 0.00 52 1005.8
20260506021214 11 284 0.0 3.2 0.00 0.00 0.00 51 1005.8
20260506020700 11 292 1.6 4.8 0.00 0.00 0.00 52 1005.8
20260506020202 11 292 1.6 4.8 0.00 0.00 0.00 51 1005.7
20260506015655 11 292 0.0 0.0 0.00 0.00 0.00 51 1005.7
20260506015149 11 292 0.0 0.0 0.00 0.00 0.00 51 1005.7
20260506014644 11 292 0.0 0.0 0.00 0.00 0.00 51 1005.5
20260506014132 11 292 0.0 4.8 0.00 0.00 0.00 51 1005.5
20260506013849 11 292 1.6 4.8 0.00 0.00 0.00 50 1005.5
20260506013116 11 321 1.6 4.8 0.00 0.00 0.00 50 1005.2
20260506012830 11 298 1.6 4.8 0.00 0.00 0.00 50 1005.2
20260506012106 11 298 0.0 3.2 0.00 0.00 0.00 50 1005.2
20260506011827 11 297 0.0 6.4 0.00 0.00 0.00 49 1005.2
20260506011106 11 297 1.6 6.4 0.00 0.00 0.00 50 1005.2
20260506010605 11 284 1.6 6.4 0.00 0.00 0.00 49 1005.2
20260506010104 11 275 0.0 6.4 0.00 0.00 0.00 49 1005.0
20260506010048 11 287 0.0 6.4 0.00 0.00 0.00 48 1005.0
20260506005103 11 288 0.0 3.2 0.00 0.00 0.00 48 1005.0
20260506004604 11 288 1.6 4.8 0.00 0.00 0.00 48 1005.0
20260506004103 11 292 1.6 6.4 0.00 0.00 0.00 46 1005.0
20260506003555 11 296 1.6 6.4 0.00 0.00 0.00 47 1005.0
20260506003051 12 257 1.6 4.8 0.00 0.00 0.00 46 1004.7
20260506002541 12 258 1.6 6.4 0.00 0.00 0.00 45 1004.7
20260506002039 12 258 1.6 6.4 0.00 0.00 0.00 45 1004.7
20260506001532 12 259 3.2 6.4 0.00 0.00 0.00 45 1004.6
20260506001027 12 281 1.6 6.4 0.00 0.00 0.00 44 1004.6
20260506000520 12 340 1.6 6.4 0.00 0.00 0.00 45 1004.6
20260506000014 12 298 1.6 8.0 0.00 0.00 0.00 44 1004.5
20260505235507 12 310 1.6 8.0 0.00 0.00 0.00 44 1004.5
20260505234956 12 355 3.2 9.7 0.00 0.00 0.00 44 1004.5
20260505234455 12 328 4.8 9.7 0.00 0.00 0.00 43 1004.9
20260505233950 12 313 3.2 9.7 0.00 0.00 0.00 42 1004.9
20260505233444 12 332 3.2 9.7 0.00 0.00 0.00 42 1004.7
20260505232939 12 288 4.8 9.7 0.00 0.00 0.00 42 1004.7
20260505232428 12 294 3.2 9.7 0.00 0.00 0.00 41 1004.7
20260505231925 12 290 4.8 12.9 0.00 0.00 0.00 41 1004.9
20260505231419 12 314 4.8 16.1 0.00 0.00 0.00 41 1004.9
20260505231135 12 298 4.8 16.1 0.00 0.00 0.00 39 1004.9
20260505230407 12 293 4.8 12.9 0.00 0.00 0.00 40 1005.0
20260505225901 12 342 4.8 12.9 0.00 0.00 0.00 40 1005.0
20260505225356 12 254 4.8 14.5 0.00 0.00 0.00 39 1005.0
20260505224845 12 257 4.8 16.1 0.00 0.00 0.00 41 1005.2
20260505224343 12 340 4.8 16.1 0.00 0.00 0.00 41 1005.2
20260505223839 12 316 4.8 12.9 0.00 0.00 0.00 40 1005.2
20260505223550 12 273 6.4 12.9 0.00 0.00 0.00 40 1005.1
20260505222825 12 284 6.4 14.5 0.00 0.00 0.00 40 1005.1
20260505222315 12 299 4.8 11.3 0.00 0.00 0.00 41 1005.1
20260505221813 12 291 4.8 11.3 0.00 0.00 0.00 42 1005.1
20260505221306 12 292 4.8 9.7 0.00 0.00 0.00 44 1005.1
20260505220800 12 268 4.8 11.3 0.00 0.00 0.00 42 1005.1
20260505220517 12 269 6.4 11.3 0.00 0.00 0.00 42 1005.2
20260505220005 12 250 6.4 12.9 0.00 0.00 0.00 41 1005.2
20260505215244 12 281 6.4 14.5 0.00 0.00 0.00 42 1005.2
20260505214738 12 230 6.4 14.5 0.00 0.00 0.00 41 1005.5
20260505214716 12 274 4.8 14.5 0.00 0.00 0.00 42 1005.5
20260505213727 12 292 4.8 14.5 0.00 0.00 0.00 41 1005.5
20260505213218 12 328 6.4 14.5 0.00 0.00 0.00 42 1005.4
20260505212713 12 273 4.8 11.3 0.00 0.00 0.00 42 1005.4
20260505212202 12 271 4.8 9.7 0.00 0.00 0.00 41 1005.4
20260505211701 12 265 6.4 14.5 0.00 0.00 0.00 41 1005.4
20260505211156 12 226 6.4 14.5 0.00 0.00 0.00 42 1005.4
20260505210656 12 236 6.4 19.3 0.00 0.00 0.00 43 1005.4
20260505210157 12 301 8.0 19.3 0.00 0.00 0.00 43 1005.5
20260505205656 12 280 6.4 14.5 0.00 0.00 0.00 45 1005.5
20260505205157 12 306 4.8 11.3 0.00 0.00 0.00 48 1005.5
20260505204918 12 287 4.8 11.3 0.00 0.00 0.00 47 1005.6
20260505204156 12 242 4.8 9.7 0.00 0.00 0.00 48 1005.6
20260505203659 12 264 4.8 14.5 0.00 0.00 0.00 47 1005.6
20260505203159 12 250 6.4 16.1 0.00 0.00 0.00 47 1005.9
20260505202654 12 273 6.4 16.1 0.00 0.00 0.00 47 1005.9
20260505202407 12 281 4.8 16.1 0.00 0.00 0.00 47 1005.9
20260505201850 12 286 6.4 16.1 0.00 0.00 0.00 45 1005.7
20260505201127 12 277 6.4 16.1 0.00 0.00 0.00 46 1005.7
20260505200620 12 301 8.0 17.7 0.00 0.00 0.00 46 1005.7
20260505200114 12 340 6.4 17.7 0.00 0.00 0.00 45 1005.5
20260505195607 12 302 4.8 14.5 0.00 0.00 0.00 46 1005.5
20260505195101 12 277 8.0 20.9 0.00 0.00 0.00 46 1005.5
20260505194556 12 279 8.0 20.9 0.00 0.00 0.00 45 1005.5
20260505194045 12 219 6.4 17.7 0.00 0.00 0.00 46 1005.5
20260505193543 12 259 4.8 12.9 0.00 0.00 0.00 45 1005.5
20260505193037 12 248 4.8 16.1 0.00 0.00 0.00 45 1005.7
20260505192531 12 288 6.4 16.1 0.00 0.00 0.00 45 1005.7
20260505192247 12 223 4.8 14.5 0.00 0.00 0.00 45 1005.7
20260505191520 12 10 4.8 11.3 0.00 0.00 0.00 47 1005.7
20260505191245 12 215 6.4 12.9 0.00 0.00 0.00 47 1005.7
20260505190508 12 269 6.4 14.5 0.00 0.00 0.00 51 1005.7
20260505190000 12 290 6.4 14.5 0.00 0.00 0.00 49 1005.8
20260505185454 12 237 4.8 11.3 0.00 0.00 0.00 51 1005.8
20260505184948 12 272 6.4 11.3 0.00 0.00 0.00 50 1006.0
20260505184443 12 286 6.4 11.3 0.00 0.00 0.00 52 1006.0
20260505183932 12 285 6.4 11.3 0.00 0.00 0.00 53 1006.0
20260505183422 12 235 6.4 11.3 0.00 0.00 0.00 54 1006.0
20260505182920 12 237 4.8 11.3 0.00 0.00 0.00 57 1006.0
20260505182416 12 288 6.4 14.5 0.00 0.00 0.00 57 1006.0
20260505181910 11 320 8.0 14.5 0.00 0.00 0.00 57 1005.9
20260505181404 12 283 6.4 12.9 0.00 0.00 0.00 57 1005.9
20260505180853 12 259 6.4 12.9 0.00 0.00 0.00 56 1005.9
20260505180352 12 250 6.4 14.5 0.00 0.00 0.00 57 1005.6
20260505175846 12 289 4.8 14.5 0.00 0.00 0.00 57 1005.6
20260505175340 12 229 6.4 12.9 0.00 0.00 0.00 56 1005.6
20260505174834 12 250 6.4 19.3 0.00 0.00 0.00 56 1005.6
20260505174323 12 351 4.8 19.3 0.00 0.00 0.00 56 1005.6
20260505173821 12 316 6.4 19.3 0.00 0.00 0.00 58 1005.6
20260505173316 11 286 6.4 19.3 0.00 0.00 0.00 58 1005.6
20260505172810 12 9 6.4 14.5 0.00 0.00 0.00 58 1005.6
20260505172750 11 271 6.4 19.3 0.00 0.00 0.00 56 1005.6
20260505171756 12 293 6.4 17.7 0.00 0.00 0.00 56 1005.5
20260505171251 12 341 6.4 16.1 0.00 0.00 0.00 55 1005.5
20260505170744 12 295 6.4 16.1 0.00 0.00 0.00 54 1005.5
20260505170229 12 215 8.0 16.1 0.00 0.00 0.00 53 1005.4
20260505165725 12 259 8.0 19.3 0.00 0.00 0.00 54 1005.4
20260505165224 12 235 8.0 19.3 0.00 0.00 0.00 51 1005.4
20260505164727 12 270 8.0 17.7 0.00 0.00 0.00 52 1005.4
20260505164224 13 273 6.4 16.1 0.00 0.00 0.00 52 1005.4
20260505163725 12 288 6.4 14.5 0.00 0.00 0.00 52 1005.4
20260505163222 12 285 6.4 14.5 0.00 0.00 0.00 53 1005.1
20260505162724 12 276 6.4 14.5 0.00 0.00 0.00 52 1005.1
20260505162221 12 303 6.4 12.9 0.00 0.00 0.00 57 1005.1
20260505161947 12 5 4.8 12.9 0.00 0.00 0.00 58 1005.0
20260505161217 11 310 3.2 9.7 0.00 0.00 0.00 60 1005.0
20260505160711 11 355 3.2 8.0 0.00 0.00 0.00 62 1005.0
20260505160206 11 269 4.8 11.3 0.00 0.00 0.00 63 1005.4
20260505153130 10 351 4.8 16.1 0.00 0.00 0.00 67 1005.1
20260505152619 10 348 4.8 11.3 0.00 0.00 0.00 71 1005.1
20260505152115 10 34 3.2 11.3 0.00 0.00 0.00 74 1005.1
20260505151611 9 31 1.6 6.4 0.00 0.00 0.00 79 1005.4
20260505151104 8 310 3.2 6.4 0.00 0.00 0.00 77 1005.4
20260505150559 8 244 3.2 6.4 0.00 0.00 0.00 81 1005.4
20260505140445 7 321 3.2 6.4 0.00 0.00 0.00 85 1005.9
20260505124812 8 5 6.4 16.1 0.00 0.00 0.00 76 1004.4
20260505124300 8 336 6.4 17.7 0.00 0.00 0.00 75 1004.4
20260505123747 8 11 8.0 17.7 0.00 0.00 0.00 73 1004.4
20260505123510 9 12 8.0 20.9 0.00 0.00 0.00 71 1004.6
20260505122743 10 9 8.0 20.9 0.00 0.00 0.00 68 1004.6
20260505122512 10 282 8.0 19.3 0.00 0.00 0.00 66 1004.6
20260505121742 10 13 4.8 14.5 0.00 0.00 0.00 65 1004.6
20260505121243 10 325 4.8 14.5 0.00 0.00 0.00 65 1004.6
20260505120742 10 328 4.8 12.9 0.00 0.00 0.00 65 1004.6
20260505120243 10 348 4.8 11.3 0.00 0.00 0.00 64 1004.4
20260505115743 10 349 4.8 11.3 0.00 0.00 0.00 64 1004.4
20260505115241 10 100 4.8 16.1 0.00 0.00 0.00 65 1004.4
20260505114741 10 327 4.8 16.1 0.00 0.00 0.00 64 1003.4
20260505114236 10 350 3.2 9.7 0.00 0.00 0.00 65 1003.4
20260505113728 10 350 4.8 11.3 0.00 0.00 0.00 65 1003.4
20260505113222 11 0 4.8 11.3 0.00 0.00 0.00 64 1003.3
20260505112928 11 355 4.8 11.3 0.00 0.00 0.00 64 1003.3
20260505112437 10 355 4.8 11.3 0.00 0.00 0.00 65 1003.3